Location: ?
(35.7716°N, 139.6082°E)
Time: 14:34:22
(UTC+00:00)

Daily predictions for brighter satellites

Satellite Brightness Start Highest point End
(mag) Time Altitude Azimuth Time Altitude Azimuth Time Altitude Azimuth
Cosmos 2082 Rocket 4.5 17:50:13 17° NNE 17:50:13 17° NNE 17:51:23 10° NNE
NOSS 3-1 (C) 4.4 18:03:11 43° N 18:06:02 67° ENE 18:14:56 10° SE
CZ-2C R/B 3.9 17:47:22 10° N 18:06:26 77° E 18:06:51 73° SE
ALOS 4.3 18:04:50 10° NNE 18:06:49 23° NE 18:06:49 23° NE
COSMOS 2455 3.0 18:27:53 66° NNE 18:27:53 66° NNE 18:33:02 10° NNE
Cosmos 1980 Rocket 3.5 18:32:41 29° SSE 18:32:41 29° SSE 18:35:19 10° SSE
OAO 2 Rocket 3.9 18:32:01 52° ESE 18:32:01 52° ESE 18:35:55 10° E
FENGYUN 3A 3.8 18:28:08 10° NNE 18:32:47 66° NNE 18:32:47 66° NNE
Cosmos 1707 4.5 18:44:14 26° NNE 18:44:14 26° NNE 18:46:08 10° NNE
USA 234 3.1 18:38:24 10° NE 18:44:56 76° NW 18:46:16 58° WSW
Cosmos 2151 Rocket 3.7 18:49:39 72° ESE 18:49:39 72° ESE 18:53:49 10° SSE
PSLV R/B 3.9 18:48:05 10° NNE 18:52:27 66° ESE 18:54:26 31° S
DELTA 2 R/B (1) 4.3 18:55:57 37° SSW 18:55:57 37° SSW 19:00:25 10° SE
Cosmos 773 Rocket 3.9 18:56:26 40° SSW 18:58:22 90° W 19:03:38 10° NNE
In-Cosmos 22 4.2 18:59:17 10° S 19:04:32 74° E 19:09:49 10° NNE
Cosmos 2278 3.8 19:06:51 48° W 19:07:18 49° WSW 19:12:46 10° S
USA 229 DEB 3.9 19:00:21 11° NNW 19:07:45 88° NE 19:15:40 10° SSE
USA 229 3.9 19:00:25 10° NNW 19:07:52 88° ENE 19:15:45 10° SSE
Meteor 1-22 Rocket 4.3 19:02:18 10° NNW 19:08:00 53° W 19:13:29 10° SSW
Cosmos 2181 Rocket 3.8 19:02:21 10° SSW 19:08:27 74° W 19:14:41 10° N
CZ-2C R/B 4.1 19:06:18 10° N 19:07:48 18° NNW 19:07:48 18° NNW
Cosmos 371 Rocket 4.1 19:11:54 10° N 19:16:40 51° ENE 19:21:23 10° SE
SJ-6F 4.4 19:14:34 10° NNE 19:18:47 86° ESE 19:22:57 10° SSW
Cosmos 1470 4.4 19:22:06 20° SSW 19:22:06 20° SSW 19:23:26 10° SSW
SL-16 R/B 2.3 19:16:25 10° NNW 19:22:06 75° ENE 19:27:45 10° SSE
Cosmos 1674 2.6 19:19:03 10° S 19:22:44 83° E 19:26:28 10° N
Cosmos 1626 3.1 19:19:52 10° SSE 19:23:25 48° E 19:26:59 10° NNE
Cosmos 1538 Rocket 4.3 19:19:17 10° S 19:24:31 72° ESE 19:29:51 10° NNE
Cosmos 1484 Rocket 3.2 19:22:13 10° N 19:25:19 39° NW 19:25:19 39° NW
NOSS 3-1 (A) 4.2 19:22:13 10° NW 19:30:08 67° WSW 19:39:03 10° SSE
BREEZE M DEB (TANK) 3.1 19:27:53 18° NW 19:31:56 68° NNE 19:34:38 10° ESE
COSMO-SKYMED 1 4.2 19:28:18 10° SE 19:32:16 37° ENE 19:36:16 10° N
Cosmos 1378 Rocket 4.2 19:34:25 31° W 19:34:57 32° WNW 19:38:57 10° NNW
Lacrosse 5 rocket 3.7 19:35:29 11° NNW 19:35:32 11° NNW 19:36:47 10° N
Cosmos 158 Rocket 4.0 19:30:33 10° SSW 19:35:44 79° ESE 19:40:48 10° NNE
CZ-2C R/B 4.1 19:31:17 10° SE 19:36:19 40° ENE 19:41:28 10° N
Cosmos 2322 Rocket 2.4 19:31:28 10° NNW 19:37:09 75° ENE 19:42:48 10° SSE
SL-8 Rocket 4.1 19:32:59 10° NNW 19:38:52 47° W 19:44:43 10° SSW
Lacrosse 5 3.4 19:35:01 10° NNW 19:39:37 33° NE 19:44:11 10° ESE
YAOGAN 6 2.8 19:36:28 10° NNE 19:39:59 68° E 19:43:30 10° S
SEDSat Delta rocket 4.0 19:37:16 18° SW 19:40:08 37° S 19:44:03 10° ESE
Cosmos 2218 Rocket 4.1 19:35:28 10° NNW 19:41:42 55° W 19:47:51 10° SSW
Cosmos 2333 Rocket 4.5 19:37:32 10° N 19:42:10 24° ENE 19:46:46 10° ESE
GOES 2 Rocket 4.4 19:43:10 15° SW 19:45:54 29° S 19:49:48 10° ESE
Cosmos 1455 Rocket 4.3 19:41:48 10° N 19:46:04 44° E 19:50:18 10° SSE
ALOS 3.9 19:43:16 10° NNW 19:45:18 16° NW 19:45:18 16° NW
Atlas Centaur 2 4.4 19:43:03 10° SSW 19:46:25 16° SSE 19:49:26 10° ESE
GEOS 3 Rocket 3.5 19:42:56 10° NNE 19:48:03 71° NW 19:53:05 10° SW
Cosmos 2360 Rocket 2.9 19:44:02 10° NNW 19:49:37 55° ENE 19:55:09 10° SE
Cosmos 1758 3.8 19:47:45 10° NNW 19:51:23 35° W 19:55:02 10° SSW
Cosmos 1975 Rocket 3.0 19:47:51 10° S 19:52:15 87° W 19:56:43 10° N
SL-27 R/B 2.4 19:52:47 10° SSW 19:55:58 48° WNW 19:59:10 10° N
Cosmos 1953 2.2 19:54:24 10° N 19:58:26 86° W 20:02:25 10° S
Cosmos 1346 Rocket 3.3 19:54:51 10° SSW 19:58:34 38° WNW 20:02:20 10° N
Cosmos 44 3.4 19:54:03 10° NW 19:58:38 46° WSW 20:02:56 10° S
Helios 1B 4.5 19:55:55 10° S 20:00:13 74° WSW 20:04:35 10° NNW
Cosmos 923 Rocket 4.4 19:58:50 10° S 20:03:59 69° ESE 20:09:10 10° NNE
USA 305 2.8 20:00:51 10° SW 20:05:00 85° SE 20:09:09 10° NE
ATLAS 2A CENTAUR R/B 3.8 20:03:54 10° SSW 20:06:32 15° S 20:11:12 10° SE
Cosmos 1680 Rocket 4.4 20:02:26 10° S 20:07:29 54° ESE 20:12:36 10° NNE
Cosmos 1184 Rocket 4.0 20:07:58 10° SW 20:10:24 20° WNW 20:12:50 10° NNW
Okean 1 Rocket 4.2 20:12:01 10° NW 20:15:30 23° W 20:19:01 10° SW
OAO 2 Rocket 3.3 20:10:58 12° W 20:15:41 81° S 20:20:37 10° E
Cosmos 389 Rocket 4.0 20:13:45 10° NW 20:16:06 17° W 20:18:26 10° SW
Envisat 3.2 20:12:45 10° N 20:17:40 51° WNW 20:22:33 10° SSW
Meteor PRIRODA 4.4 20:14:30 10° NNE 20:18:10 59° E 20:21:46 10° S
CZ-2C R/B 4.5 20:13:14 10° NNE 20:18:11 42° E 20:22:51 10° S
Cosmos 304 Rocket 3.8 20:14:14 10° NNW 20:19:01 65° WSW 20:23:46 10° S
COSMOS 2487 2.3 20:15:59 10° SSW 20:19:18 88° W 20:22:39 10° NNE
SKYMED 2 3.6 20:15:58 10° S 20:20:14 58° W 20:24:31 10° NNW
NOAA 11 4.5 20:19:11 10° NNE 20:24:37 75° ESE 20:30:01 10° S
Cosmos 1908 4.0 20:22:26 10° NNW 20:25:44 29° W 20:29:02 10° SSW
Meteor 1-31 Rocket 3.4 20:22:56 10° N 20:26:20 32° WNW 20:29:43 10° SW
USA 234 4.4 20:22:10 10° NNE 20:27:13 25° NNW 20:32:15 10° WNW
Cosmos 332 Rocket 4.0 20:24:13 10° NNW 20:28:52 50° WSW 20:33:28 10° S
SL-14 R/B 3.7 20:26:34 10° SSW 20:30:18 39° W 20:34:01 10° N
ISS -3.8 20:26:57 10° SW 20:30:19 83° NW 20:33:41 10° NE
